Regional Weather Roundup
Issued by NWS San Angelo, TX

Home | Current Version | Previous Version | Text Only | Print | Product List | Glossary On
Versions: 1 2 3 4 5 6 7 8 9 10 11 12 13 14 15 16 17 18 19 20 21 22 23 24 25 26 27 28 29 30 31 32 33 34 35 36 37 38 39 40 41 42 43 44 45 46 47 48 49 50
000
ASUS44 KSJT 231110
RWRSJT
WEST CENTRAL TEXAS REGIONAL WEATHER ROUNDUP
NATIONAL WEATHER SERVICE SAN ANGELO TX
600 AM CDT SAT AUG 23 2014

NOTE: "FAIR" INDICATES FEW OR NO CLOUDS BELOW 12,000 FEET WITH NO
SIGNIFICANT WEATHER AND/OR OBSTRUCTIONS TO VISIBILITY.

TXZ049-054-064>066-071>073-076>078-098-099-113-114-127-128-139-140-
154-155-168>170-231200
...LOCATIONS ACROSS WEST CENTRAL TEXAS...

CITY           SKY/WX    TMP DP  RH WIND       PRES   REMARKS
SAN ANGELO     PTCLDY    76  64  66 S8        30.02R
ABILENE        CLEAR     75  60  59 S5        30.02R
DYESS AFB      CLEAR     76  61  60 S10       30.00S
JUNCTION       CLEAR     72  63  73 S7        30.03F
SWEETWATER     MOCLDY    77  60  55 S13       30.05S
BROWNWOOD      PTCLDY    73  59  60 S5        30.01S
COLEMAN        SUNNY     71  58  62 SW3       30.03R
SONORA         PTCLDY    73  64  73 SE6       30.08F
OZONA          FAIR      73  63  68 S9        30.07R
BRADY          CLEAR     73  61  64 S7        30.03R
$$

TEXAS PANHANDLE/OKLAHOMA PANHANDLE

CITY           SKY/WX    TMP DP  RH WIND       PRES   REMARKS
AMARILLO       CLOUDY    71  61  70 SW14      30.01F
BORGER         MOCLDY    75  58  55 S13G25    29.98F
CANADIAN       CLEAR     67  61  79 SW5       29.95S
DALHART        MOCLDY    69  60  73 SW13      30.01F
DUMAS          CLOUDY    67  61  79 S13       29.99F
GUYMON         NOT AVBL
HEREFORD       LGT RAIN  70  62  77 SW22      30.06R
PAMPA          MOSUNNY   68  58  68 SW10      30.01R
PERRYTON       CLEAR     68  60  77 S9        29.95F
$$

SOUTHERN PANHANDLE/SOUTH PLAINS/ROLLING PLAINS

CITY           SKY/WX    TMP DP  RH WIND       PRES   REMARKS
LUBBOCK        MOCLDY    72  56  57 SE8       30.03S
SNYDER         MOCLDY    72  55  55 S7        30.04R
CHILDRESS      PTCLDY    76  52  43 S10       29.98R
SEMINOLE       CLOUDY    71  60  68 CALM      30.05S
$$

PERMIAN BASIN

CITY           SKY/WX    TMP DP  RH WIND       PRES   REMARKS
MIDLAND        MOCLDY    73  49  42 SE10      30.02F
ODESSA         MOCLDY    76  46  34 S13       30.03S
WINK           CLOUDY    73  68  84 CALM      30.00R
$$

FAR WEST/SOUTHWEST MOUNTAINS/TRANS PECOS

CITY           SKY/WX    TMP DP  RH WIND       PRES   REMARKS
ALPINE         CLOUDY    66  61  84 W5        30.16F
DRYDEN           N/A     75  50  41 NE7       29.98S
EL PASO        MOCLDY    68  61  78 CALM      30.07S
FORT STOCKTON  CLOUDY    75  53  46 S6        30.02F
GUADALUPE PASS PTCLDY    64  58  80 W9        30.17F
MARFA          CLOUDY    64  63  94 NE3       30.16S
PECOS          CLOUDY    70  67  89 CALM      30.00S
$$

DALLAS/FORT WORTH METROPLEX

CITY           SKY/WX    TMP DP  RH WIND       PRES   REMARKS
DFW AIRPORT    CLEAR     81  67  62 SW12      29.97S
FTW MEACHAM    CLEAR     81  63  54 S10       29.98R
DAL-EXECUTIVE  CLEAR     80  68  66 VRB6      29.98R
GRAND PRAIRIE  CLEAR     79  66  64 S5        30.00R
ADDISON        NOT AVBL
MESQUITE       NOT AVBL
LANCASTER      SUNNY     77  68  74 SW3       30.00R
$$

NORTH CENTRAL TEXAS

CITY           SKY/WX    TMP DP  RH WIND       PRES   REMARKS
SHRMAN/DENISON SUNNY     78  67  69 S8        29.99S
GAINESVILLE    CLEAR     74  66  76 S3        30.00R
BRIDGEPORT     SUNNY     76  61  60 S5        29.99S
DENTON         CLEAR     76  66  71 S6        29.97S
WAXAHACHIE     SUNNY     75  67  75 S6        30.00S
GRANBURY       SUNNY     78  61  56 S5        30.00R
$$

WESTERN NORTH TEXAS

CITY           SKY/WX    TMP DP  RH WIND       PRES   REMARKS
WICHITA FALLS  CLEAR     73  59  61 S9        29.94S
VERNON         SUNNY     73  50  44 S7        29.96S
BRECKENRIDGE   SUNNY     78  57  47 S8        29.99R
COMANCHE       CLEAR     74  59  58 S6        30.02R
$$

CENTRAL AND SOUTH CENTRAL TEXAS

CITY           SKY/WX    TMP DP  RH WIND       PRES   REMARKS
AUSTIN/BERGSTM PTCLDY    72  71  97 SW3       30.01S
WACO           CLEAR     76  71  85 S8        30.00R
HILLSBORO      SUNNY     76  67  74 S6        30.01R
TEMPLE         CLEAR     73  66  78 S8        30.01S
KILLEEN-GRAY   CLEAR     73  68  83 S7        30.02R
FORT HOOD      CLEAR     76  70  82 SE5       30.02R
GEORGETOWN     CLEAR     75  72  88 S5          N/A
LAGO VISTA     FAIR      75  70  85 S5        30.04R
SAN MARCOS     PTCLDY    75  70  83 SW5       30.03S
NEW BRAUNFELS  MOCLDY    76  73  91 S6        30.00S
RANDOLPH AFB   CLOUDY    77  73  85 S7        30.02S
SAN ANTONIO    CLOUDY    79  73  82 S9        30.02S
STINSON        MOCLDY    77  74  90 S7        29.99F
PLEASANTON     NOT AVBL
LA GRANGE      CLEAR     74  74  98 CALM      29.99S FOG
GIDDINGS       MOSUNNY   74  73  95 CALM      30.05S FOG
$$

EAST TEXAS

CITY           SKY/WX    TMP DP  RH WIND       PRES   REMARKS
PARIS          CLEAR     73  64  73 SE3       30.01R
CLARKSVILLE    CLOUDY    74  72  92 CALM      30.01R
TYLER          CLEAR     75  71  87 S6        30.01R
LONGVIEW       CLEAR     73  70  90 S3        30.01R
PALESTINE      SUNNY     74  73  96 CALM      30.02S
NACOGDOCHES    CLEAR     70  66  88 CALM      30.03R
$$

TEXAS HILL COUNTRY AND EDWARDS PLATEAU

CITY           SKY/WX    TMP DP  RH WIND       PRES   REMARKS
LLANO          SUNNY     73  64  73 CALM      30.05S
HORSESHOE BAY  FAIR      72  67  85 CALM      30.02S
KERRVILLE      CLEAR     72  68  89 CALM      30.05S
FREDERICKSBRG  CLEAR     67  63  87 CALM      30.04S
ROCKSPRINGS    SUNNY     70  64  83 SE7       30.08S
HONDO          PTCLDY    70  68  93 NE5       30.03S
UVALDE         SUNNY     71  68  89 NE6       30.02R
DEL RIO        PTCLDY    78  67  68 E6        29.97R
$$

SOUTHEAST TEXAS

CITY           SKY/WX    TMP DP  RH WIND       PRES   REMARKS
COLLEGE STN    CLEAR     74  72  93 S3        30.02R
CALDWELL       SUNNY     73  73 100 CALM      30.05R
CROCKETT       SUNNY     75  75 100 CALM      30.05S FOG
BRENHAM        PTCLDY    74  73  95 CALM      30.02R FOG
HUNTSVILLE     CLEAR     76  73  91 S5        30.02R
CONROE         CLEAR     70  70 100 CALM      30.02R
HOUSTON BUSH   CLEAR     76  74  93 CALM      30.00R
HOUSTON HOBBY  PTCLDY    77  74  90 CALM      30.00R
PERLAND        CLEAR     76  72  87 CALM      30.01R
WHARTON        SUNNY     73  72  97 CALM      30.01R FOG
$$

THE UPPER TEXAS COAST

CITY           SKY/WX    TMP DP  RH WIND       PRES   REMARKS
ORANGE         SUNNY     74  74 100 CALM      30.03R FOG
PORT ARTHUR    CLEAR     75  74  96 CALM      30.01R
GALVESTON      CLEAR     82  76  81 S6        30.01S
ANGLETON       CLEAR     74  73  97 CALM      30.00R
BAY CITY       SUNNY     76  76 100 CALM      29.99S
$$

TEXAS COASTAL BEND, RIO GRANDE PLAINS DEEP SOUTH TEXAS

CITY           SKY/WX    TMP DP  RH WIND       PRES   REMARKS
VICTORIA       PTCLDY    77  75  93 CALM      30.00R
BEEVILLE       FAIR      74  74 100 CALM      29.98S
ROCKPORT       MOCLDY    82  77  84 SW3       29.97S
PORT ARANSAS   MOSUNNY   80  78  94 S5        29.97S
PORT LAVACA    MOSUNNY   77  76  95 CALM      29.98S
CORPUS CHRISTI PTCLDY    74  72  93 SE7       29.97S
KINGSVILLE NAS CLEAR     76  76 100 S5        29.97S
COTULLA        PTCLDY    76  70  82 SE8       29.98S
LAREDO         CLEAR     78  72  82 SE9       29.98S
BROWNSVILLE    MOCLDY    79  77  94 CALM      29.95F
PORT ISABEL    MOCLDY    81  76  84 CALM      29.95F
HEBBRONVILLE   MOSUNNY   75  73  92 E3        29.99S
MCALLEN        PTCLDY    79  75  87 SE7       29.95F
WESLACO        PTCLDY    79  74  85 SE3       29.94F
FALFURRIAS     SUNNY     72  69  90 CALM      29.96F
EDINBURG       MOSUNNY   79  74  86 SE3       29.96S
$$



USA.gov is the U.S. government's official web portal to all federal, state and local government web resources and services.